Location: Filler
(36.7551°N, 30.4456°E)
Time: 07:53:23
(UTC+00:00)

Meteor 1-26 Rocket - Pass Details

Date: 19 June 2024
Orbit: 803 x 930 km, 81.3° (Epoch: 22 July)

Event Time Altitude Azimuth Distance (km) Brightness Sun altitude
Rises 01:50:09 0° 352° (N) 3,335 7.7 -9.0°
Reaches altitude 10° 01:52:33 10° 353° (N) 2,393 7.0 -8.6°
Maximum altitude 01:57:57 84° 81° (E) 813 4.2 -7.7°
Drops below altitude 10° 02:03:19 10° 170° (S) 2,381 6.3 -6.9°
Sets 02:05:41 0° 171° (S) 3,317 7.0 -6.5°
